Olathe, KS

7:55 PM CDT on April 25, 2017 (GMT -0500)
Johnson County Executive

Weather History for KOJC - April, 2013

Change the Weather History Date:

Tuesday, April 2, 2013

  Actual Average Record
Temperature  
Mean Temperature 39 °F 51 °F  
Max Temperature 49 °F 61 °F 85 °F (1976)
Min Temperature 29 °F 40 °F 20 °F (1970)
Degree Days  
Heating Degree Days 26 14  
Month to date heating degree days 50 29  
Since 1 July heating degree days 4528 4546  
Cooling Degree Days 0 0  
Month to date cooling degree days 0 0  
Year to date cooling degree days 1 1  
Moisture  
Dew Point 19 °F    
Average Humidity 47    
Maximum Humidity 63    
Minimum Humidity 31    
Precipitation  
Precipitation 0.00 in 0.09 in 1.95 in (1983)
Month to date precipitation 0.00 0.17  
Year to date precipitation 5.20 5.49  
Sea Level Pressure  
Sea Level Pressure 30.30 in    
Wind  
Wind Speed 6 mph (ENE)    
Max Wind Speed 12 mph    
Max Gust Speed 25 mph    
Visibility 10 miles    
Events      
T = Trace of Precipitation, MM = Missing Value Source: NWS Daily Summary

Daily Weather History Graph

Daily Weather History Graph

Search for Another Location

Airport or City:

Trip Planner

Search our weather history database for the weather conditions in past years. The results will help you decide how hot, cold, wet, or windy it might be!

Date:

Astronomy

Apr. 02, 2013 Rise Set
Actual Time 7:01 AM CDT 7:43 PM CDT
Civil Twilight 6:34 AM CDT 8:10 PM CDT
Nautical Twilight 6:03 AM CDT 8:42 PM CDT
Astronomical Twilight 5:30 AM CDT 9:15 PM CDT
Moon 1:46 AM CDT (4/2) 11:55 AM CDT (4/2)
Length of Visible Light 13h 35m
Length of Day
12h 42m
Waning Gibbous, 55% of the Moon is Illuminated
Apr 2
Waning Gibbous
Apr 2
Last Quarter
Apr 10
New
Apr 18
First Quarter
Apr 25
Full

Hourly Weather History & Observations

Time (CDT) Temp. Windchill Dew Point Humidity Pressure Visibility Wind Dir Wind Speed Gust Speed Precip Events Conditions
12:53 AM 35.1 °F 29.3 °F 18.0 °F 50% 30.29 in 10.0 mi North 6.9 mph - N/A   Clear
1:53 AM 34.0 °F 29.8 °F 18.0 °F 52% 30.29 in 10.0 mi NNE 4.6 mph - N/A   Clear
2:53 AM 33.1 °F 26.9 °F 18.0 °F 54% 30.29 in 10.0 mi NNE 6.9 mph - N/A   Clear
3:53 AM 32.0 °F 24.2 °F 17.1 °F 54% 30.30 in 10.0 mi NE 9.2 mph - N/A   Clear
4:53 AM 32.0 °F 26.4 °F 17.1 °F 54% 30.30 in 10.0 mi ENE 5.8 mph - N/A   Clear
5:53 AM 30.9 °F 24.3 °F 18.0 °F 59% 30.31 in 10.0 mi ENE 6.9 mph - N/A   Clear
6:53 AM 28.9 °F 23.9 °F 18.0 °F 64% 30.32 in 10.0 mi East 4.6 mph - N/A   Clear
7:53 AM 30.9 °F 24.3 °F 19.0 °F 61% 30.33 in 10.0 mi East 6.9 mph - N/A   Clear
8:53 AM 33.1 °F 26.1 °F 19.0 °F 56% 30.35 in 10.0 mi East 8.1 mph - N/A   Clear
9:40 AM 35.6 °F 29.9 °F 19.4 °F 52% 30.32 in 10.0 mi ENE 6.9 mph - N/A   Clear
9:53 AM 36.0 °F 30.3 °F 19.0 °F 50% 30.35 in 10.0 mi East 6.9 mph - N/A   Clear
10:53 AM 39.0 °F 34.0 °F 19.9 °F 46% 30.34 in 10.0 mi NE 6.9 mph - N/A   Clear
11:53 AM 41.0 °F 35.2 °F 19.0 °F 41% 30.34 in 10.0 mi East 9.2 mph 16.1 mph N/A   Clear
12:53 PM 43.0 °F 38.2 °F 19.0 °F 38% 30.32 in 10.0 mi East 8.1 mph 16.1 mph N/A   Clear
1:53 PM 46.0 °F 42.5 °F 19.0 °F 34% 30.31 in 10.0 mi Variable 6.9 mph - N/A   Clear
2:53 PM 46.9 °F - 18.0 °F 32% 30.29 in 10.0 mi NE 8.1 mph - N/A   Clear
3:53 PM 46.9 °F - 19.0 °F 33% 30.28 in 10.0 mi Variable 5.8 mph - N/A   Clear
4:53 PM 48.0 °F - 19.0 °F 32% 30.27 in 10.0 mi Variable 4.6 mph - N/A   Clear
5:53 PM 46.9 °F - 19.9 °F 34% 30.25 in 10.0 mi East 8.1 mph - N/A   Clear
6:53 PM 46.0 °F 43.9 °F 21.0 °F 37% 30.26 in 10.0 mi East 4.6 mph - N/A   Clear
7:53 PM 43.0 °F 40.3 °F 21.0 °F 42% 30.26 in 10.0 mi East 4.6 mph - N/A   Clear
8:53 PM 41.0 °F 38.0 °F 21.0 °F 45% 30.27 in 10.0 mi East 4.6 mph - N/A   Clear
9:53 PM 39.9 °F 36.7 °F 21.0 °F 47% 30.29 in 10.0 mi East 4.6 mph - N/A   Clear
10:53 PM 39.0 °F 35.7 °F 21.9 °F 50% 30.29 in 10.0 mi East 4.6 mph - N/A   Clear
11:53 PM 37.9 °F 35.5 °F 21.0 °F 51% 30.29 in 10.0 mi East 3.5 mph - N/A   Clear